This demonstration page uses our WeatherBlox Daily Observations layout. Learn more.

38.89511, -77.03637

Hourly Observations for May 24, 2019

Temp ( °F °C ) Dew Point ( °F °C ) Humidity (%) Winds ( mph kmh ) Pressure ( in mb ) Visibility ( mi km ) Precip ( " mm )
12:52 am 00:52 Mostly Cloudy 71 21.7 69 20.6 94 94 S 6 9 29.91 1013 10 16.09344 0 0
1:52 am 01:52 Partly Cloudy 72 22.2 69 20.6 91 91 SSE 8 13 29.91 1013 10 16.09344 0 0
2:52 am 02:52 Partly Cloudy 72 22.2 68 20 87 87 S 7 11 29.91 1013 10 16.09344 0 0
3:52 am 03:52 Partly Cloudy 72 22.2 67 19.4 84 84 S 6 9 29.88 1012 10 16.09344 0 0
4:52 am 04:52 Partly Cloudy 70 21.1 68 20 93 93 SSW 6 9 29.91 1013 10 16.09344 0 0
5:52 am 05:52 Partly Cloudy 73 22.8 65 18.3 76 76 WNW 7 11 29.94 1014 10 16.09344 0 0
6:52 am 06:52 Partly Cloudy 73 22.8 60 15.6 64 64 NW 13 20 29.97 1015 10 16.09344 0 0
7:52 am 07:52 Partly Cloudy 74 23.3 53 11.7 48 48 NNW 15 24 30 1016 10 16.09344 0 0
8:52 am 08:52 Mostly Sunny 74 23.3 52 11.1 46 46 NNW 16 26 30.03 1017 10 16.09344 0 0
9:52 am 09:52 Mostly Sunny 75 23.9 51 10.6 43 43 NW 21 33 30.03 1017 10 16.09344 0 0
10:52 am 10:52 Mostly Sunny 76 24.4 51 10.6 42 42 NNW 17 28 30.03 1017 10 16.09344 0 0
11:52 am 11:52 Partly Cloudy 77 25 50 10 39 39 NW 20 31 30.03 1017 10 16.09344 0 0
12:52 pm 12:52 Mostly Sunny 79 26.1 52 11.1 39 39 NNW 16 26 30.03 1017 10 16.09344 0 0
1:52 pm 13:52 Mostly Sunny 80 26.7 53 11.7 39 39 NNW 17 28 30.03 1017 10 16.09344 0 0
2:52 pm 14:52 Mostly Sunny 82 27.8 54 12.2 38 38 NW 14 22 30.03 1017 10 16.09344 0 0
3:52 pm 15:52 Mostly Sunny 83 28.3 53 11.7 36 36 NW 15 24 30 1016 10 16.09344 0 0
4:52 pm 16:52 Mostly Sunny 83 28.3 52 11.1 34 34 NNW 15 24 30 1016 10 16.09344 0 0
5:52 pm 17:52 Mostly Cloudy 83 28.3 51 10.6 33 33 NW 16 26 30 1016 10 16.09344 0 0
6:52 pm 18:52 Mostly Cloudy 82 27.8 51 10.6 34 34 NNW 14 22 30.03 1017 10 16.09344 0 0
7:52 pm 19:52 Mostly Cloudy 78 25.6 53 11.7 42 42 N 8 13 30.06 1018 10 16.09344 0 0
8:52 pm 20:52 Partly Cloudy 77 25 53 11.7 43 43 NNE 9 15 30.06 1018 10 16.09344 0 0
9:52 pm 21:52 Mostly Clear 74 23.3 53 11.7 48 48 N 8 13 30.06 1018 10 16.09344 0 0
10:52 pm 22:52 Mostly Clear 75 23.9 52 11.1 45 45 N 5 7 30.09 1019 10 16.09344 0 0
11:52 pm 23:52 Mostly Clear 74 23.3 53 11.7 48 48 Calm 30.09 1019 10 16.09344 0 0

Powered by AerisWeather